一网星座-0660星 (ONEWEB-0660)

导读 | 豆包AI

ONEWEB-0660是英国一网公司OneWeb低轨宽带卫星星座的一员,于2023年3月9日由SpaceX猎鹰9火箭发射升空,是SpaceX为OneWeb执行的最后一批专网发射任务中卫星。该卫星部署于1200公里近地轨道,属于一网一期星座组网卫星,其成功入轨助力OneWeb推进全球互联网覆盖目标,为后续全球宽带通信服务运营奠定基础,能为基础设施落后地区提供低成本互联网接入。

基本信息
目录编号:
55820
目录名称:
ONEWEB-0660
国际标识:
2023-029AA
轨道中心:
EARTH
卫星名称:
一网星座-0660星
卫星全名:
一网星座-0660星 (ONEWEB-0660)
卫星状态:
在轨 (已飞行1101 天)
发射日期:
2023-03-09 UTC
国别 :
英国 (GB)
星等 :
--
轨道信息
数据来源 国际轨道数据 AOE轨道数据
星历时间 2026-03-14T05:40:46+0800
9小时前
查看轨道信息
2026-03-10T12:00:00+0800
4天前
查看轨道信息
半长轴 7583.927km 7583.914km
偏心率 0.0001552 0.0001492
轨道倾角 87.898° 87.899°
近地点辐角 94.486° 94.062°
升交点赤经 308.710° 309.454°
平近点角 265.645° 233.580°
近地点 1204.612km 1204.645km
远地点 1206.968km 1206.909km
周期 109.547分钟 109.547分钟
每日圈数 13.145031 13.145063
详细信息
平衡模式:
三轴稳定
覆盖范围:
全球
运营商:
一网卫星公司
运营商所在国:
英国
制造商(研发单位):
一网卫星公司
制造商所在国:
英国
使用方式:
暂无
卫星简介
OneWeb卫星网络由648颗重约125公斤的微型卫星组成,运行在1200公里的轨道上。 每颗卫星都能够提供至少每秒8千兆位的吞吐量,以使用其高吞吐量的Ku频段有效载荷为家庭和移动平台提供互联网接入。该卫星仍在工作。
2D轨道图
3D轨道图
轨道高度分析图
轨道倾角分析图
轨道综合分析图
查看轨道综合分析图